Miscellaneous Local Product
Issued by NWS North Platte, NE

Home | Current Version | Previous Version | Text Only | Print | Product List | Glossary On
Versions: 1 2 3 4 5 6 7 8 9 10 11 12 13 14 15 16 17 18 19 20 21 22 23 24 25 26 27 28 29 30 31 32 33 34 35 36 37 38 39 40 41 42 43 44 45 46 47 48 49 50
000
AXUS43 KLBF 220710
MISLBF


WESTERN AND NORTH CENTRAL NEBRASKA HOURLY WEATHER ROUNDUP
NATIONAL WEATHER SERVICE NORTH PLATTE NE
100 AM CST SAT NOV 22 2014

***STATIONS NOT REPORTING VARIABLES SUCH AS SKY/WEATHER OR
PRESSURE ARE PROVIDED BY THE NEBRASKA DEPARTMENT OF
ROADS...RAWS...AND APRS NETWORKS...AND ARE NOT UNDER
NATIONAL WEATHER SERVICE QUALITY CONTROL***

...OBSERVATIONS IN AND NEAR THE EASTERN PANHANDLE OF NEBRASKA...

CITY           SKY/WX    TMP DP  RH WIND       PRES   REMARKS
PINE RIDGE     CLEAR     16  14  92 CALM      29.81F
CHADRON        CLEAR     24  21  88 SW3       29.82F
ALLIANCE       CLEAR     22  16  78 W3        29.85F
SIDNEY         CLEAR     27  19  72 SW12      29.89F WCI  17
WHITECLAY        N/A     22  19  87 SE6         N/A  WCI  15
LISCO            N/A     26  17  69 CALM        N/A
BIG SPRINGS      N/A     27  20  75 SW5         N/A  WCI  22
LEWELLEN         N/A     16  12  86 CALM        N/A
$$

...OBSERVATIONS IN NORTH CENTRAL NEBRASKA...

CITY           SKY/WX    TMP DP  RH WIND       PRES   REMARKS
VALENTINE      CLEAR     25  22  88 SW8       29.82F WCI  16
THEDFORD       CLEAR     31  27  86 CALM      29.85F
AINSWORTH      CLEAR     31  26  81 W7        29.81F WCI  24
O`NEILL        CLEAR     33  31  90 SW7       29.84F WCI  27
ORD            CLEAR     31  27  85 S5        29.88F WCI  26
BROKEN BOW     CLEAR     28  27  96 CALM      29.87F
BROWNLEE         N/A     33  22  63 W6          N/A  WCI  27
BREWSTER         N/A     33  29  87 CALM        N/A
COMSTOCK         N/A     35  33  90 S13         N/A  WCI  27
$$

...OBSERVATIONS IN SOUTHWEST NEBRASKA AND FAR NORTHEAST COLORADO...

CITY           SKY/WX    TMP DP  RH WIND       PRES   REMARKS
WRAY           FAIR      26  17  68 CALM      29.92S
HOLYOKE        FAIR      27  18  69 W7        29.91S WCI  19
IMPERIAL       CLEAR     29  18  63 W9        29.90F WCI  20
OGALLALA       CLEAR     22  19  86 W6        29.89S WCI  15
NORTH PLATTE   CLEAR     22  20  92 CALM      29.88F
MCCOOK         CLEAR     29  28  96 SW7       29.90F WCI  22
LEXINGTON      PTCLDY    35  33  94 SW7       29.90F FOG     WCI  29
PAXTON           N/A     26  21  82 CALM        N/A
GOTHENBURG       N/A     35  31  85 CALM        N/A
CALLAWAY         N/A     31  29  90 S9          N/A  WCI  23
$$

...SOME WEATHER OBSERVATIONS FROM AROUND THE REGION...

CITY           SKY/WX    TMP DP  RH WIND       PRES   REMARKS
DENVER         PTCLDY    39  20  46 SW14      29.95S WCI  31
LARAMIE        CLEAR     32  17  54 SW16G23   29.92F WCI  21
CHEYENNE       CLEAR     33  17  51 SW12      29.91F WCI  24
SCOTTSBLUFF    CLEAR     23  17  78 N5        29.86F WCI  17
RAPID CITY     CLEAR     33  21  61 SW3       29.76F
PIERRE         CLEAR     30  26  85 SW10      29.77F WCI  21
WINNER         FAIR      37  26  64 SW8       29.80F WCI  31
SIOUX FALLS    PTCLDY    33  28  81 SW12      29.84F WCI  24
OMAHA          CLOUDY    37  35  92 S9        29.98S FOG     WCI  30
GRAND ISLAND   CLOUDY    37  35  92 SW12      29.93F FOG     WCI  29
KANSAS CITY    CLOUDY    51  49  92 S16       30.01F
WICHITA        CLOUDY    43  43 100 CALM      30.03F FOG
HAYS           CLOUDY    34  27  75 SW6       29.97F VSB 1   WCI  29
LIBERAL        MOCLDY    37  30  75 S6        30.01R WCI  33
GOODLAND       CLEAR     32  19  58 SW12      29.94S WCI  23
$$



USA.gov is the U.S. government's official web portal to all federal, state and local government web resources and services.